TimeEDT,TemperatureF,Dew PointF,Humidity,Sea Level PressureIn,VisibilityMPH,Wind Direction,Wind SpeedMPH,Gust SpeedMPH,PrecipitationIn,Events,Conditions,WindDirDegrees,DateUTC
12:56 AM,63.0,54.0,72,29.90,10.0,SW,11.5,19.6,N/A,,Scattered Clouds,230,2013-08-03 04:56:00
1:56 AM,62.1,55.0,78,29.89,10.0,WSW,9.2,16.1,N/A,,Mostly Cloudy,240,2013-08-03 05:56:00
2:03 AM,62.6,55.4,77,29.92,10.0,SW,9.2,-,N/A,,Mostly Cloudy,230,2013-08-03 06:03:00
2:56 AM,61.0,55.9,83,29.90,10.0,WSW,6.9,-,N/A,,Partly Cloudy,250,2013-08-03 06:56:00
3:56 AM,61.0,57.0,87,29.90,10.0,WSW,5.8,-,N/A,,Overcast,250,2013-08-03 07:56:00
4:56 AM,61.0,57.9,90,29.91,10.0,WSW,4.6,-,N/A,,Partly Cloudy,240,2013-08-03 08:56:00
5:25 AM,60.8,57.2,88,29.94,10.0,WSW,5.8,-,N/A,,Mostly Cloudy,240,2013-08-03 09:25:00
5:32 AM,60.8,57.2,88,29.94,10.0,WSW,5.8,-,N/A,,Scattered Clouds,250,2013-08-03 09:32:00
5:56 AM,61.0,57.9,90,29.93,10.0,WSW,5.8,-,N/A,,Partly Cloudy,250,2013-08-03 09:56:00
6:56 AM,60.1,57.0,90,29.94,10.0,West,6.9,-,N/A,,Clear,270,2013-08-03 10:56:00
7:56 AM,63.0,57.9,84,29.96,10.0,West,6.9,-,N/A,,Mostly Cloudy,280,2013-08-03 11:56:00
8:15 AM,62.6,57.2,82,29.98,10.0,WNW,11.5,-,N/A,,Scattered Clouds,300,2013-08-03 12:15:00
8:56 AM,64.0,55.9,75,29.96,10.0,NW,8.1,-,N/A,,Mostly Cloudy,310,2013-08-03 12:56:00
9:56 AM,68.0,55.0,63,29.95,10.0,WNW,10.4,-,N/A,,Partly Cloudy,300,2013-08-03 13:56:00
10:56 AM,69.1,54.0,58,29.96,10.0,WNW,11.5,-,N/A,,Scattered Clouds,300,2013-08-03 14:56:00
11:56 AM,72.0,52.0,49,29.95,10.0,NW,12.7,21.9,N/A,,Mostly Cloudy,310,2013-08-03 15:56:00
12:56 PM,73.0,48.9,42,29.95,10.0,NW,10.4,20.7,N/A,,Scattered Clouds,320,2013-08-03 16:56:00
1:56 PM,73.0,48.9,42,29.95,10.0,NW,10.4,-,N/A,,Partly Cloudy,320,2013-08-03 17:56:00
2:56 PM,72.0,48.9,44,29.95,10.0,NW,11.5,21.9,N/A,,Scattered Clouds,310,2013-08-03 18:56:00
3:56 PM,73.0,48.0,41,29.95,10.0,NW,8.1,20.7,N/A,,Clear,320,2013-08-03 19:56:00
4:56 PM,71.1,46.9,42,29.96,10.0,NW,12.7,24.2,N/A,,Partly Cloudy,320,2013-08-03 20:56:00
5:56 PM,70.0,45.0,41,29.96,10.0,NW,10.4,19.6,N/A,,Clear,310,2013-08-03 21:56:00
6:56 PM,68.0,46.0,45,29.97,10.0,WNW,11.5,-,N/A,,Clear,290,2013-08-03 22:56:00
7:56 PM,64.0,46.9,54,29.98,10.0,NW,9.2,-,N/A,,Clear,310,2013-08-03 23:56:00
8:56 PM,61.0,50.0,67,29.99,10.0,WNW,8.1,-,N/A,,Clear,300,2013-08-04 00:56:00
9:56 PM,57.9,50.0,75,30.00,10.0,WNW,10.4,-,N/A,,Clear,290,2013-08-04 01:56:00
10:56 PM,57.9,51.1,78,29.99,10.0,WNW,10.4,-,N/A,,Clear,290,2013-08-04 02:56:00
11:56 PM,57.9,52.0,81,29.99,10.0,WNW,9.2,-,N/A,,Clear,290,2013-08-04 03:56:00